Tiempo cada hora Golczowice

Hoy, 27 Noviembre, Viernes

Tiempo Temperatura Precipitaciones Viento Presión Humedad
00:00 +3°C° 0 mm 2 mps 753 mmHg 71%
01:00 +4°C° 0 mm 1 mps 753 mmHg 74%
02:00 +4°C° 0 mm 1 mps 753 mmHg 76%
03:00 +3°C° 0 mm 2 mps 753 mmHg 77%
04:00 +3°C° 0 mm 2 mps 753 mmHg 79%
05:00 +4°C° 0 mm 1 mps 753 mmHg 81%
06:00 +4°C° 0 mm 1 mps 753 mmHg 83%
07:00 +4°C° 0 mm 1 mps 753 mmHg 86%
08:00 +5°C° 0 mm 1 mps 753 mmHg 86%
09:00 +5°C° 0 mm 1 mps 753 mmHg 85%
10:00 +5°C° 0 mm 1 mps 753 mmHg 85%
11:00 +5°C° 0 mm 1 mps 753 mmHg 85%
12:00 +5°C° 0 mm 1 mps 753 mmHg 85%
13:00 +5°C° 0 mm 0 mps 753 mmHg 85%
14:00 +4°C° 0.1 mm 0 mps 753 mmHg 87%
15:00 +5°C° 0.1 mm 1 mps 753 mmHg 89%
16:00 +5°C° 0.1 mm 1 mps 753 mmHg 91%
17:00 +5°C° 0 mm 1 mps 753 mmHg 92%
18:00 +5°C° 0 mm 1 mps 753 mmHg 92%
19:00 +5°C° 0 mm 1 mps 753 mmHg 93%
20:00 +5°C° 0 mm 1 mps 753 mmHg 93%
21:00 +5°C° 0 mm 1 mps 753 mmHg 92%
22:00 +5°C° 0 mm 1 mps 753 mmHg 92%
23:00 +5°C° 0 mm 1 mps 753 mmHg 91%

Mañana, 28 Noviembre, Sábado

Tiempo Temperatura Precipitaciones Viento Presión Humedad
00:00 +5°C° 0 mm 1 mps 753 mmHg 89%
01:00 +5°C° 0 mm 1 mps 753 mmHg 88%
02:00 +4°C° 0 mm 2 mps 752 mmHg 88%
03:00 +3°C° 0 mm 2 mps 752 mmHg 88%
04:00 +3°C° 0 mm 2 mps 752 mmHg 88%
05:00 +3°C° 0 mm 2 mps 752 mmHg 86%
06:00 +3°C° 0 mm 2 mps 752 mmHg 85%
07:00 +3°C° 0 mm 2 mps 752 mmHg 84%
08:00 +3°C° 0 mm 2 mps 752 mmHg 82%
09:00 +2°C° 0 mm 3 mps 752 mmHg 80%
10:00 +3°C° 0 mm 3 mps 753 mmHg 77%
11:00 +3°C° 0 mm 3 mps 753 mmHg 76%
12:00 +3°C° 0 mm 3 mps 753 mmHg 74%
13:00 +3°C° 0 mm 3 mps 753 mmHg 73%
14:00 +3°C° 0 mm 3 mps 753 mmHg 75%
15:00 +2°C° 0 mm 3 mps 753 mmHg 77%
16:00 +2°C° 0 mm 3 mps 753 mmHg 79%
17:00 +2°C° 0 mm 2 mps 753 mmHg 81%
18:00 +2°C° 0 mm 2 mps 753 mmHg 82%
19:00 +1°C° 0 mm 2 mps 754 mmHg 83%
20:00 +1°C° 0 mm 2 mps 754 mmHg 84%
21:00 -1°C° 0 mm 2 mps 754 mmHg 84%
22:00 -1°C° 0 mm 2 mps 754 mmHg 85%
23:00 -1°C° 0 mm 2 mps 754 mmHg 84%

Pasado mañana, 29 Noviembre, Domingo

Tiempo Temperatura Precipitaciones Viento Presión Humedad
00:00 -1°C° 0 mm 2 mps 754 mmHg 83%
01:00 -1°C° 0 mm 2 mps 754 mmHg 82%
02:00 -1°C° 0 mm 2 mps 753 mmHg 84%
03:00 -1°C° 0 mm 2 mps 753 mmHg 86%
04:00 -1°C° 0 mm 3 mps 753 mmHg 88%
05:00 -1°C° 0.2 mm 3 mps 753 mmHg 91%
06:00 -1°C° 0.2 mm 4 mps 753 mmHg 93%
07:00 -1°C° 0.2 mm 4 mps 753 mmHg 96%
08:00 -1°C° 0.1 mm 4 mps 753 mmHg 95%
09:00 0°C° 0.1 mm 3 mps 753 mmHg 94%
10:00 +1°C° 0.1 mm 3 mps 753 mmHg 92%
11:00 +1°C° 0.1 mm 3 mps 753 mmHg 93%
12:00 +1°C° 0.1 mm 3 mps 753 mmHg 94%
13:00 +1°C° 0.1 mm 3 mps 752 mmHg 95%
14:00 +1°C° 0.3 mm 3 mps 752 mmHg 96%
15:00 0°C° 0.3 mm 3 mps 752 mmHg 96%
16:00 0°C° 0.3 mm 3 mps 752 mmHg 97%
17:00 0°C° 0.3 mm 3 mps 752 mmHg 97%
18:00 +1°C° 0.3 mm 2 mps 753 mmHg 96%
19:00 +1°C° 0.3 mm 2 mps 753 mmHg 96%
20:00 +1°C° 0.1 mm 2 mps 753 mmHg 96%
21:00 -1°C° 0.1 mm 2 mps 753 mmHg 96%
22:00 -1°C° 0.1 mm 2 mps 753 mmHg 95%
23:00 -2°C° 0 mm 2 mps 754 mmHg 95%

30 Noviembre, Lunes

Tiempo Temperatura Precipitaciones Viento Presión Humedad
00:00 -2°C° 0 mm 2 mps 754 mmHg 95%
01:00 -2°C° 0 mm 2 mps 754 mmHg 94%
02:00 -2°C° 0 mm 2 mps 754 mmHg 94%
03:00 -2°C° 0 mm 2 mps 754 mmHg 94%
04:00 -2°C° 0 mm 2 mps 755 mmHg 94%
05:00 0°C° 0 mm 1 mps 755 mmHg 93%
06:00 0°C° 0 mm 1 mps 756 mmHg 93%
07:00 0°C° 0 mm 1 mps 756 mmHg 93%
08:00 +1°C° 0.1 mm 1 mps 756 mmHg 92%
09:00 +1°C° 0.1 mm 1 mps 757 mmHg 91%
10:00 +1°C° 0.1 mm 1 mps 757 mmHg 90%
11:00 +2°C° 0 mm 1 mps 757 mmHg 88%
12:00 +2°C° 0 mm 1 mps 757 mmHg 87%
13:00 +2°C° 0 mm 2 mps 757 mmHg 86%
14:00 +2°C° 0 mm 1 mps 757 mmHg 88%
15:00 +2°C° 0 mm 1 mps 757 mmHg 89%
16:00 +1°C° 0 mm 1 mps 757 mmHg 91%
17:00 +1°C° 0 mm 1 mps 757 mmHg 91%
18:00 +1°C° 0 mm 1 mps 758 mmHg 92%
19:00 -1°C° 0 mm 2 mps 758 mmHg 92%
20:00 -1°C° 0 mm 2 mps 758 mmHg 92%
21:00 -2°C° 0 mm 2 mps 758 mmHg 92%
22:00 -2°C° 0 mm 2 mps 758 mmHg 92%
23:00 -2°C° 0 mm 2 mps 757 mmHg 91%

1 Diciembre, Martes

Tiempo Temperatura Precipitaciones Viento Presión Humedad
00:00 -2°C° 0 mm 2 mps 757 mmHg 90%
01:00 -3°C° 0 mm 2 mps 757 mmHg 90%
02:00 -2°C° 0 mm 2 mps 756 mmHg 88%
03:00 -2°C° 0 mm 2 mps 756 mmHg 86%
04:00 -2°C° 0 mm 2 mps 756 mmHg 84%
05:00 -2°C° 0 mm 2 mps 755 mmHg 83%
06:00 -2°C° 0 mm 2 mps 755 mmHg 83%
07:00 -1°C° 0 mm 2 mps 755 mmHg 82%
08:00 -1°C° 0 mm 3 mps 754 mmHg 79%
09:00 0°C° 0 mm 3 mps 754 mmHg 77%
10:00 0°C° 0 mm 3 mps 754 mmHg 74%
11:00 0°C° 0.2 mm 3 mps 753 mmHg 80%
12:00 0°C° 0.2 mm 3 mps 753 mmHg 85%
13:00 0°C° 0.2 mm 3 mps 752 mmHg 90%
14:00 0°C° 0.1 mm 3 mps 752 mmHg 92%
15:00 0°C° 0.1 mm 3 mps 752 mmHg 94%
16:00 0°C° 0.1 mm 3 mps 751 mmHg 96%
17:00 -1°C° 0.1 mm 3 mps 751 mmHg 95%
18:00 -1°C° 0.1 mm 2 mps 751 mmHg 94%
19:00 -1°C° 0.1 mm 2 mps 751 mmHg 93%
20:00 -1°C° 0.1 mm 2 mps 751 mmHg 94%
21:00 -1°C° 0.1 mm 3 mps 751 mmHg 94%
22:00 -1°C° 0.1 mm 3 mps 751 mmHg 95%
23:00 -1°C° 0.1 mm 2 mps 751 mmHg 96%

2 Diciembre, Miércoles

Tiempo Temperatura Precipitaciones Viento Presión Humedad
00:00 -1°C° 0.1 mm 2 mps 751 mmHg 97%
01:00 -1°C° 0.1 mm 2 mps 751 mmHg 97%
02:00 -1°C° 0.1 mm 2 mps 751 mmHg 97%
03:00 +1°C° 0.1 mm 1 mps 751 mmHg 97%
04:00 +1°C° 0.1 mm 1 mps 752 mmHg 97%
05:00 +1°C° 0 mm 1 mps 752 mmHg 97%
06:00 +1°C° 0 mm 1 mps 752 mmHg 97%
07:00 +1°C° 0 mm 1 mps 752 mmHg 97%
08:00 +1°C° 0 mm 1 mps 753 mmHg 95%
09:00 +1°C° 0 mm 1 mps 753 mmHg 94%
10:00 +2°C° 0 mm 1 mps 753 mmHg 92%
11:00 +2°C° 0 mm 1 mps 753 mmHg 91%
12:00 +2°C° 0 mm 1 mps 753 mmHg 90%
13:00 +2°C° 0 mm 1 mps 753 mmHg 89%
14:00 +2°C° 0 mm 1 mps 753 mmHg 90%
15:00 +2°C° 0 mm 1 mps 753 mmHg 92%
16:00 +2°C° 0 mm 1 mps 754 mmHg 94%
17:00 +2°C° 0 mm 1 mps 754 mmHg 95%
18:00 +1°C° 0 mm 1 mps 754 mmHg 95%
19:00 +1°C° 0 mm 1 mps 754 mmHg 95%
20:00 +1°C° 0 mm 1 mps 754 mmHg 94%
21:00 +1°C° 0 mm 1 mps 754 mmHg 94%
22:00 0°C° 0 mm 1 mps 755 mmHg 93%
23:00 0°C° 0 mm 1 mps 754 mmHg 93%
Mostrar más

Necesitamos Su Consentimiento

Meteoprog y nuestros Proveedores de Servicios pueden almacenar y acceder a sus datos personales como cookies, identificadores de dispositivo u otras tecnologías similares de su dispositivo y procesar dichos datos para personalizar contenido y anuncios, además de ofrecer funciones de redes sociales y analizar el tráfico.

  • Almacenar y/o acceder a información en su dispositivo

    Se puede almacenar o acceder a cookies, identificadores de dispositivo u otra información de su dispositivo para los fines anteriormente indicados.

  • Anuncios y contenido personalizados, medición de anuncios y contenido, percepciones del público, y desarrollo de productos

    Los anuncios y el contenido pueden personalizarse en base a su perfil. Se pueden añadir más datos para personalizar mejor los anuncios y contenidos. Se puede medir el rendimiento de los anuncios y contenidos. Se puede obtener la percepción sobre el público que ha visto los anuncios y contenidos. Dichos datos pueden usarse para desarrollar o mejorar la experiencia del usuario, sistemas y software.

Al hacer clic en ‘Estoy De Acuerdo’ usted permitirá el uso de las cookies, identificadores de dispositivo, balizas web u otras tecnologías similares indicadas. Su configuración puede cambiarse desde el navegador de su dispositivo.

Para ciertos fines, los intereses legítimos pueden ser considerados por encima del consentimiento. Puede leer más sobre ello en nuestra Política de Privacidad y Cookies.